EHI
0 0 0 0 0 0 0 0 0 0 0 0 0 0 0 0 0 0 0 0 0 0 0 0 0 0 0 0 0 0 0 0 0 0 0 0 0 0
0 0 0 0 0 0 0 0 0 0 0 0 0 0 0 0 0 0 0 0 0 0 0 0 0 0 0 0 0 0 0 0 0 0 0 0 0 0
0 0 0 0 0 0 0 0 0 0 0 0 0 0 0 0 0 0 0 0 0 0 0 0 0 0 0 0 0 0 0 0 0 0 0 0 0 0
0 0 0 0 0 0 0 0 0 0 0 0 0 0 0 0 0 0 0 0 0 0 0 0 0 0 0 0 0 0 0 0 0 0 0 0 0 0
0 0 0 0 0 0 0 0 0 0 0 0 0 0 0 0 0 0 0 0 0 0 0 0 0 0 0 0 0 0 0 0 0 0 0 0 0 0
0 0 0 0 0 0 0 0 0 0 0 0 0 0 0 0 0 0 0 0 0 0 0 0 0 0 0 0 0 0 0 0 0 0 0 0 0 0
0 0 0 0 0 0 0 0 0 0 0 0 0 0 0 0 0 0 0 0 0 0 0 0 0 0 0 0 0 0 0 0 0 0 0 0 0 0
0 0 0 0 0 0 0 0 0 0 0 0 0 0 0 0 0 0 0 0 0 0 0 0 0 0 0 0 0 0 0 0 0 0 0 0 0 0
0 0 0 0 0 0 0 0 0 0 0 0 0 0 0 0 0 0 0 0 0 0 0 0 0 0 0 0 0 0 0 0 0 0 0 0 0 0
0 0 0 0 0 0 0 0 0 0 0 0 0 0 0 0 0 0 0 0 0 0 0 0 0 0 0 0 0 0 0 0 0 0 0 0 0 0
0 0 0 0 0 0 0 0 0 0 0 0 0 0 0 0 0 0 0 0 0 0 0 0 0 0 0 0 0 0 0 0 0 0 0 0 0 0
0 0 0 0 0 0 0 0 0 0 0 0 0 0 0 0 0 0 0 0 0 0 0 0 0 0 0 0 0 0 0 0 0 0 0 0 0 0
0 0 0 0 0 0 0 0 0 0 0 0 0 0 0 0 0 0 0 0 0 0 0 0 0 0 0 0 0 0 0 0 0 0 0 0 0 0
0 0 0 0 0 0 0 0 0 0 0 0 0 0 0 0 0 0 0 0 0 0 0 0 0 0 0 0 0 0 0 0 0 0 0 0 0 0
0 0 0 0 0 0 0 0 0 0 0 0 0 0 0 0 0 0 0 0 0 0 0 0 0 0 0 0 0 0 0 0 0 0 0 0 0 0
0 0 0 0 0 0 0 0 0 0 0 0 0 0 0 0 0 0 0 0 0 0 0 0 0 0 0 0 0 0 0 0 0 0 0 0 0 0
0 0 0 0 0 0 0 0 0 0 0 0 0 0 0 0 0 0 0 0 0 0 0 0 0 0 0 0 0 0 0 0 0 0 0 0 0 0
0 0 0 0 0 0 0 0 0 0 0 0 0 0 0 0 0 0 0 0 0 0 0 0 0 0 0 0 0 0 0 0 0 0 0 0 0 0
0 0 0 0 0 0 0 0 0 0 0 0 0 0 0 0 0 0 0 0 0 0 0 0 0 0 0 0 0 0 0 0 0 0 0 0 0 0
0 0 0 0 0 0 0 0 0 0 0 0 0 0 0 0 0 0 0 0 0 0 0 0 0 0 0 0 0 0 0 0 0 0 0 0 0 0
0 0 0 0 0 0 0 0 0 0 0 0 0 0 0 0 0 0 0 0 0 0 0 0 0 0 0 0 0 0 0 0 0 0 0 0 0 0
0 0 0 0 0 0 0 0 0 0 0 0 0 0 0 0 0 0 0 0 0 0 0 0 0 0 0 0 0 0 0 0 0 0 0 0 0 0
0 0 0 0 0 0 0 0 0 0 0 0 0 0 0 0 0 0 0 0 0 0 0 0 0 0 0 0 0 0 0 0 0 0 0 0 0 0
Wind_Speed
3 4 5 6 6 7 8 9 11 13 12 10 9 9 8 10 9 11 14 14 16 17 19 20 22 23 24 24 24 24 24 24 24 25 25 25 25 25
3 5 6 7 6 7 8 8 9 11 13 10 10 10 10 11 13 14 15 17 19 21 21 21 22 22 23 24 25 25 25 25 25 25 25 25 25 25
5 6 7 8 8 8 8 8 9 10 12 11 10 10 12 13 13 13 14 14 13 15 16 17 19 21 22 24 24 24 25 24 24 24 24 24 24 24
6 7 8 7 8 9 8 9 9 9 11 13 11 11 13 13 14 14 13 12 13 14 13 16 20 21 22 23 24 23 22 22 22 23 23 23 23 23
7 8 9 9 9 9 9 9 9 9 9 11 12 11 11 12 13 13 14 12 13 13 13 17 21 22 22 21 21 20 19 18 19 21 22 22 22 22
8 8 9 9 9 10 9 10 9 10 10 10 11 11 11 12 11 11 11 10 10 12 14 14 15 16 19 20 21 22 20 18 19 19 19 19 20 20
9 9 8 8 10 10 10 11 11 10 10 10 11 11 11 10 10 10 10 10 11 11 11 11 10 10 12 16 20 22 20 18 18 18 18 17 17 17
10 9 9 9 7 10 13 14 15 15 13 12 11 12 13 12 10 9 10 10 9 8 9 11 11 11 10 10 10 11 14 16 16 15 15 16 16 15
10 9 8 7 9 9 10 14 16 16 17 14 14 13 13 12 12 12 10 11 11 10 10 11 10 10 9 9 9 10 12 13 14 14 14 14 14 14
9 9 9 9 7 10 14 15 14 13 11 11 11 12 12 11 11 11 11 12 12 10 8 9 9 9 10 8 7 10 11 12 13 13 13 13 13 13
9 8 8 9 7 11 14 14 14 12 10 10 12 14 15 15 12 9 9 8 9 9 7 6 7 10 10 8 3 6 9 10 11 12 12 12 12 13
8 8 5 5 11 13 13 13 13 13 13 13 10 9 9 8 8 8 7 7 7 6 4 4 6 6 6 7 6 4 5 8 9 10 10 11 11 11
8 7 6 7 12 14 13 11 11 14 13 10 9 8 7 6 6 5 5 5 6 5 4 4 4 4 5 6 7 6 4 3 4 6 9 10 11 10
8 7 8 12 15 16 12 10 14 13 8 7 7 7 7 7 7 7 7 6 5 6 7 6 4 5 5 6 5 5 5 4 3 2 3 8 8 8
8 10 12 14 14 10 7 11 11 7 7 7 7 6 6 7 7 7 7 7 6 5 5 6 6 6 5 5 5 5 4 3 2 1 2 4 6 6
8 9 10 10 9 8 8 7 6 6 7 6 6 6 6 6 6 7 7 7 6 6 7 7 6 5 4 6 5 5 4 2 1 0 1 2 2 3
11 8 6 7 8 8 8 8 8 7 7 7 6 5 6 6 6 6 6 6 6 7 8 7 6 3 2 5 5 5 4 2 2 2 2 3 2 2
9 6 7 7 8 8 9 9 8 7 7 7 7 6 6 6 6 7 7 7 7 8 8 9 8 6 4 4 11 7 5 4 4 4 3 4 4 3
5 6 6 7 8 8 8 8 8 8 7 6 6 6 6 6 6 7 8 8 8 8 9 9 9 9 8 8 9 15 8 5 5 6 6 5 5 5
5 6 6 7 8 8 8 8 8 8 7 7 6 6 6 6 6 7 8 9 8 9 9 9 9 9 8 7 6 10 17 10 6 7 6 6 6 8
6 6 6 7 7 8 8 8 8 7 8 7 7 7 7 7 7 7 7 8 8 8 9 9 9 10 7 6 7 9 12 18 17 9 5 4 5 5
6 7 7 7 7 8 8 8 8 8 8 8 8 7 7 7 8 8 7 7 7 7 8 7 8 9 9 10 10 10 11 11 16 22 22 15 6 5
6 7 7 8 8 8 8 9 10 8 8 9 8 8 8 8 7 7 7 7 7 8 8 8 8 9 9 9 9 10 13 13 11 12 14 18 20 18
Wind_Direction
304 291 293 300 290 291 288 285 290 293 291 298 294 292 294 289 298 292 288 284 281 277 273 271 271 271 271 271 270 270 270 271 269 268 268 268 268 268
317 314 305 298 304 289 284 285 284 286 290 297 293 294 301 297 293 291 288 285 273 265 263 264 266 268 269 269 268 267 267 267 267 265 265 264 263 264
311 309 307 310 302 305 295 288 286 288 290 294 296 299 298 290 291 289 288 286 282 268 261 262 264 265 266 267 267 266 266 266 266 266 264 263 262 261
325 316 309 306 302 292 296 297 297 297 292 293 295 295 293 291 286 286 285 284 285 285 273 267 268 266 265 264 264 263 263 263 265 266 265 264 263 261
319 312 309 305 299 301 301 294 293 292 290 289 292 294 290 289 291 286 286 285 286 285 273 261 262 260 259 258 258 258 256 254 255 258 259 261 262 261
310 305 301 301 302 305 297 293 295 296 291 289 289 290 290 293 292 291 292 291 290 290 287 282 272 260 255 254 255 254 252 249 248 248 249 251 254 256
306 303 301 307 302 298 303 309 306 299 296 294 293 293 293 296 294 296 296 298 292 289 288 284 280 272 264 251 248 249 248 247 246 244 243 242 243 245
310 310 305 287 288 279 275 283 289 291 297 295 293 292 295 298 300 298 299 298 296 294 294 291 289 285 281 273 263 251 242 241 244 245 241 236 236 237
312 309 307 315 306 307 307 293 281 269 267 278 286 291 297 301 303 302 297 295 293 292 289 288 292 290 286 282 261 250 245 242 243 243 240 235 231 231
309 305 307 312 333 337 316 303 299 298 293 285 288 293 297 301 301 296 293 291 287 285 287 289 298 300 298 291 265 244 247 247 245 242 238 234 230 226
310 307 308 311 357 334 309 301 302 305 298 283 278 281 283 280 281 288 290 292 298 304 312 300 305 310 305 302 280 233 243 246 242 238 233 229 225 220
312 309 294 327 329 315 308 306 308 316 319 315 307 297 291 286 266 273 290 294 299 300 319 309 299 309 304 307 312 292 252 235 235 231 227 223 213 219
314 316 333 348 319 308 301 299 310 309 303 309 317 324 330 326 320 311 295 289 295 290 298 299 286 290 279 293 304 307 308 289 234 217 213 207 205 220
313 321 332 328 311 301 299 308 305 298 302 323 332 338 338 334 329 324 318 306 283 282 293 298 283 287 289 290 293 306 312 303 277 237 206 183 197 213
316 315 306 301 299 297 293 298 300 313 334 339 340 340 336 334 332 329 334 335 330 329 323 312 303 297 292 293 299 298 303 302 289 238 193 184 187 192
326 315 299 290 297 318 320 322 329 340 342 343 346 344 342 344 346 346 347 350 351 347 342 336 328 325 328 325 314 310 311 307 310 150 147 149 167 186
322 317 336 346 346 347 345 344 343 351 355 354 354 352 349 354 356 356 355 359 2 355 351 347 342 342 38 8 342 341 347 7 47 81 95 101 91 102
317 338 346 345 344 342 340 340 345 351 351 354 358 2 359 359 1 5 9 9 10 5 3 359 358 6 14 48 18 3 16 34 54 71 76 81 74 62
333 349 344 340 339 337 337 340 344 348 350 358 5 8 9 11 10 13 16 16 16 15 14 11 9 13 21 20 13 10 19 40 54 62 60 61 63 52
358 346 339 336 336 336 336 340 344 351 360 7 18 24 23 25 24 25 26 23 21 20 20 18 16 17 24 20 15 21 26 34 46 60 66 70 72 76
348 341 335 333 334 335 338 343 347 354 4 10 22 32 37 36 35 35 37 31 28 27 25 21 18 20 34 36 43 41 41 43 47 44 42 67 67 60
343 337 333 335 338 341 345 351 355 2 10 17 26 36 45 48 46 43 41 39 38 37 35 33 35 39 41 44 45 42 45 47 48 49 46 47 54 54
338 333 332 338 347 348 353 355 356 4 12 15 21 31 41 47 51 51 49 49 49 49 48 46 47 49 50 50 51 51 51 50 50 54 52 52 65 72